Location: Newark
(44.6394°N, 22.2943°E)
Time: 12:32:58
(UTC+00:00)

XW-2D - Visible Passes

Search period start: 08 December 2023 00:00
Search period end: 18 December 2023 00:00
Orbit: 454 x 463 km, 97.5° (Epoch: 08 December)

Date Brightness Start Highest point End Pass type
(mag) Time Alt. Az. Time Alt. Az. Time Alt. Az.
08 Dec ? 04:27:24 10° NE 04:30:02 20° E 04:32:38 10° SE visible
08 Dec ? 16:33:19 10° S 16:36:43 55° W 16:40:09 10° NNW visible
09 Dec ? 16:01:07 10° SSE 16:04:29 53° ENE 16:07:54 10° N visible
10 Dec ? 04:55:14 10° NNE 04:58:34 44° E 05:01:53 10° S visible
10 Dec ? 15:29:41 10° ESE 15:32:23 21° ENE 15:35:06 10° NNE visible
10 Dec ? 17:02:20 10° SSW 17:05:12 24° W 17:08:05 10° NW visible
11 Dec ? 04:23:42 10° NE 04:26:07 18° E 04:28:32 10° SE visible
11 Dec ? 16:29:21 10° S 16:32:47 63° W 16:36:15 10° NNW visible
12 Dec ? 15:57:10 10° SSE 16:00:29 46° ENE 16:03:51 10° N visible
12 Dec ? 17:32:32 10° WSW 17:33:40 11° W 17:34:48 10° WNW visible
13 Dec ? 04:51:14 10° NNE 04:54:30 38° E 04:57:44 10° SSE visible
13 Dec ? 15:25:47 10° ESE 15:28:19 19° ENE 15:30:52 10° NNE visible
13 Dec ? 16:58:04 10° SSW 17:01:04 27° W 17:04:05 10° NW visible
14 Dec ? 04:19:46 10° NE 04:21:56 16° E 04:24:06 10° SE visible
14 Dec ? 16:25:08 10° S 16:28:36 74° WSW 16:32:05 10° NNW visible
15 Dec ? 05:19:10 10° NNE 05:22:39 87° W 05:26:05 10° SSW visible
15 Dec ? 15:52:59 10° SE 15:56:14 40° ENE 15:59:31 10° N visible
15 Dec ? 17:27:42 10° WSW 17:29:20 13° W 17:30:59 10° WNW visible
16 Dec ? 04:46:58 10° NNE 04:50:09 33° E 04:53:18 10° SSE visible
16 Dec ? 15:21:41 10° ESE 15:24:00 17° ENE 15:26:20 10° NNE visible
16 Dec ? 16:53:34 10° SSW 16:56:41 31° W 16:59:49 10° NNW visible
17 Dec ? 04:15:39 10° ENE 04:17:29 14° E 04:19:19 10° SE visible
17 Dec ? 16:20:40 10° SSE 16:24:08 86° WSW 16:27:38 10° NNW visible
